When you browse on this site, cookies collect data to enhance your experience and personalize the content and advertising you see.
Visit our Privacy Policy to learn more. By continuing to use the site, you agree to this use of cookies and data.
  • In Hungary
  • List of Countries
  • For 7 days
  • Water Temperature
  • Satellite Maps
  • Weather Map
  • News
  • Weather Widgets
  • user-avatar
    Login

    Hourly Weather Verhnedneprovsk

    Today, 19 April, Friday

    Time Temperature Precipitation Wind Pressure Humidity
    00:00 +8°C° 0 mm 1 mps 762 mmHg 51%
    01:00 +7°C° 0 mm 1 mps 762 mmHg 53%
    02:00 +6°C° 0 mm 1 mps 762 mmHg 56%
    03:00 +6°C° 0 mm 1 mps 762 mmHg 58%
    04:00 +5°C° 0 mm 1 mps 762 mmHg 59%
    05:00 +4°C° 0 mm 2 mps 762 mmHg 61%
    06:00 +6°C° 0 mm 2 mps 762 mmHg 57%
    07:00 +7°C° 0 mm 3 mps 762 mmHg 53%
    08:00 +9°C° 0 mm 3 mps 762 mmHg 48%
    09:00 +10°C° 0 mm 4 mps 762 mmHg 45%
    10:00 +9°C° 0 mm 5 mps 762 mmHg 41%
    11:00 +10°C° 0 mm 5 mps 763 mmHg 37%
    12:00 +12°C° 0 mm 5 mps 762 mmHg 37%
    13:00 +12°C° 0 mm 5 mps 762 mmHg 36%
    14:00 +12°C° 0 mm 5 mps 762 mmHg 35%
    15:00 +12°C° 0 mm 5 mps 762 mmHg 37%
    16:00 +10°C° 0 mm 5 mps 762 mmHg 38%
    17:00 +11°C° 0 mm 4 mps 762 mmHg 39%
    18:00 +10°C° 0 mm 4 mps 763 mmHg 42%
    19:00 +9°C° 0 mm 3 mps 763 mmHg 45%
    20:00 +9°C° 0 mm 3 mps 763 mmHg 48%
    21:00 +8°C° 0 mm 3 mps 764 mmHg 50%
    22:00 +7°C° 0 mm 3 mps 764 mmHg 52%
    23:00 +7°C° 0 mm 3 mps 764 mmHg 54%

    Tomorrow, 20 April, Saturday

    Time Temperature Precipitation Wind Pressure Humidity
    00:00 +5°C° 0 mm 3 mps 764 mmHg 55%
    01:00 +5°C° 0 mm 3 mps 764 mmHg 57%
    02:00 +4°C° 0 mm 3 mps 764 mmHg 59%
    03:00 +4°C° 0 mm 3 mps 764 mmHg 60%
    04:00 +4°C° 0 mm 3 mps 764 mmHg 62%
    05:00 +3°C° 0 mm 3 mps 764 mmHg 63%
    06:00 +5°C° 0 mm 3 mps 764 mmHg 57%
    07:00 +7°C° 0 mm 3 mps 764 mmHg 52%
    08:00 +8°C° 0 mm 4 mps 764 mmHg 46%
    09:00 +10°C° 0 mm 4 mps 764 mmHg 42%
    10:00 +11°C° 0 mm 4 mps 764 mmHg 38%
    11:00 +12°C° 0 mm 4 mps 764 mmHg 34%
    12:00 +13°C° 0 mm 4 mps 764 mmHg 33%
    13:00 +13°C° 0 mm 4 mps 763 mmHg 32%
    14:00 +14°C° 0 mm 4 mps 763 mmHg 31%
    15:00 +13°C° 0 mm 4 mps 763 mmHg 32%
    16:00 +13°C° 0 mm 3 mps 763 mmHg 33%
    17:00 +13°C° 0 mm 3 mps 762 mmHg 34%
    18:00 +13°C° 0 mm 2 mps 763 mmHg 37%
    19:00 +12°C° 0 mm 2 mps 763 mmHg 41%
    20:00 +10°C° 0 mm 2 mps 763 mmHg 44%
    21:00 +10°C° 0 mm 1 mps 763 mmHg 46%
    22:00 +10°C° 0 mm 1 mps 763 mmHg 48%
    23:00 +10°C° 0 mm 1 mps 763 mmHg 49%

    Day after tomorrow, 21 April, Sunday

    Time Temperature Precipitation Wind Pressure Humidity
    00:00 +9°C° 0 mm 1 mps 763 mmHg 50%
    01:00 +9°C° 0 mm 1 mps 763 mmHg 51%
    02:00 +8°C° 0 mm 1 mps 763 mmHg 52%
    03:00 +8°C° 0 mm 1 mps 763 mmHg 53%
    04:00 +7°C° 0 mm 1 mps 763 mmHg 54%
    05:00 +7°C° 0 mm 1 mps 763 mmHg 56%
    06:00 +8°C° 0 mm 2 mps 763 mmHg 52%
    07:00 +9°C° 0 mm 2 mps 763 mmHg 48%
    08:00 +12°C° 0 mm 2 mps 763 mmHg 44%
    09:00 +12°C° 0 mm 3 mps 763 mmHg 41%
    10:00 +13°C° 0 mm 3 mps 763 mmHg 37%
    11:00 +13°C° 0 mm 4 mps 763 mmHg 34%
    12:00 +14°C° 0 mm 4 mps 763 mmHg 34%
    13:00 +14°C° 0 mm 4 mps 763 mmHg 35%
    14:00 +14°C° 0 mm 3 mps 763 mmHg 35%
    15:00 +14°C° 0 mm 3 mps 763 mmHg 36%
    16:00 +13°C° 0 mm 3 mps 763 mmHg 37%
    17:00 +13°C° 0 mm 3 mps 763 mmHg 38%
    18:00 +13°C° 0 mm 3 mps 763 mmHg 41%
    19:00 +13°C° 0 mm 2 mps 763 mmHg 43%
    20:00 +12°C° 0 mm 2 mps 763 mmHg 45%
    21:00 +12°C° 0 mm 2 mps 764 mmHg 47%
    22:00 +10°C° 0 mm 2 mps 764 mmHg 48%
    23:00 +10°C° 0 mm 2 mps 764 mmHg 50%

    22 April, Monday

    Time Temperature Precipitation Wind Pressure Humidity
    00:00 +10°C° 0 mm 3 mps 764 mmHg 51%
    01:00 +10°C° 0 mm 3 mps 764 mmHg 53%
    02:00 +9°C° 0 mm 3 mps 764 mmHg 55%
    03:00 +9°C° 0 mm 3 mps 764 mmHg 56%
    04:00 +9°C° 0 mm 3 mps 764 mmHg 58%
    05:00 +8°C° 0 mm 3 mps 765 mmHg 59%
    06:00 +9°C° 0 mm 3 mps 765 mmHg 55%
    07:00 +11°C° 0 mm 3 mps 765 mmHg 50%
    08:00 +12°C° 0 mm 4 mps 765 mmHg 46%
    09:00 +13°C° 0 mm 4 mps 765 mmHg 42%
    10:00 +14°C° 0 mm 5 mps 765 mmHg 39%
    11:00 +14°C° 0 mm 5 mps 765 mmHg 36%
    12:00 +15°C° 0 mm 5 mps 765 mmHg 36%
    13:00 +15°C° 0 mm 5 mps 765 mmHg 36%
    14:00 +15°C° 0 mm 5 mps 765 mmHg 35%
    15:00 +15°C° 0 mm 4 mps 765 mmHg 37%
    16:00 +14°C° 0 mm 4 mps 765 mmHg 38%
    17:00 +14°C° 0 mm 4 mps 765 mmHg 40%
    18:00 +13°C° 0 mm 4 mps 765 mmHg 44%
    19:00 +11°C° 0 mm 3 mps 765 mmHg 48%
    20:00 +10°C° 0 mm 2 mps 766 mmHg 52%
    21:00 +10°C° 0 mm 2 mps 766 mmHg 53%
    22:00 +10°C° 0 mm 2 mps 766 mmHg 55%
    23:00 +10°C° 0 mm 1 mps 766 mmHg 56%

    23 April, Tuesday

    Time Temperature Precipitation Wind Pressure Humidity
    00:00 +10°C° 0 mm 1 mps 767 mmHg 57%
    01:00 +10°C° 0 mm 1 mps 767 mmHg 59%
    02:00 +10°C° 0 mm 1 mps 767 mmHg 60%
    03:00 +10°C° 0 mm 1 mps 767 mmHg 61%
    04:00 +8°C° 0 mm 2 mps 767 mmHg 62%
    05:00 +8°C° 0 mm 2 mps 767 mmHg 63%
    06:00 +10°C° 0 mm 2 mps 767 mmHg 59%
    07:00 +12°C° 0 mm 2 mps 768 mmHg 55%
    08:00 +13°C° 0 mm 2 mps 768 mmHg 52%
    09:00 +14°C° 0 mm 2 mps 768 mmHg 47%
    10:00 +14°C° 0 mm 2 mps 768 mmHg 43%
    11:00 +15°C° 0 mm 2 mps 768 mmHg 38%
    12:00 +15°C° 0 mm 2 mps 768 mmHg 38%
    13:00 +16°C° 0 mm 2 mps 768 mmHg 38%
    14:00 +16°C° 0 mm 2 mps 767 mmHg 38%
    15:00 +16°C° 0 mm 2 mps 767 mmHg 41%
    16:00 +15°C° 0 mm 1 mps 767 mmHg 44%
    17:00 +15°C° 0 mm 1 mps 767 mmHg 47%
    18:00 +14°C° 0 mm 1 mps 767 mmHg 49%
    19:00 +13°C° 0 mm 1 mps 767 mmHg 51%
    20:00 +12°C° 0 mm 2 mps 767 mmHg 52%
    21:00 +10°C° 0 mm 2 mps 768 mmHg 54%
    22:00 +10°C° 0 mm 2 mps 768 mmHg 56%
    23:00 +10°C° 0 mm 1 mps 768 mmHg 57%

    24 April, Wednesday

    Time Temperature Precipitation Wind Pressure Humidity
    00:00 +10°C° 0 mm 1 mps 768 mmHg 57%
    01:00 +10°C° 0 mm 1 mps 768 mmHg 58%
    02:00 +10°C° 0 mm 1 mps 768 mmHg 58%
    03:00 +8°C° 0 mm 2 mps 768 mmHg 59%
    04:00 +8°C° 0 mm 2 mps 768 mmHg 61%
    05:00 +7°C° 0 mm 2 mps 768 mmHg 63%
    06:00 +9°C° 0 mm 2 mps 769 mmHg 58%
    07:00 +12°C° 0 mm 2 mps 769 mmHg 54%
    08:00 +14°C° 0 mm 2 mps 769 mmHg 50%
    09:00 +15°C° 0 mm 2 mps 769 mmHg 46%
    10:00 +16°C° 0 mm 2 mps 768 mmHg 42%
    11:00 +17°C° 0 mm 3 mps 768 mmHg 39%
    12:00 +17°C° 0 mm 2 mps 768 mmHg 38%
    13:00 +18°C° 0 mm 2 mps 768 mmHg 37%
    14:00 +18°C° 0 mm 2 mps 767 mmHg 37%
    15:00 +18°C° 0 mm 2 mps 767 mmHg 37%
    16:00 +19°C° 0 mm 1 mps 767 mmHg 37%
    17:00 +19°C° 0 mm 1 mps 767 mmHg 37%
    18:00 +18°C° 0 mm 1 mps 767 mmHg 41%
    19:00 +16°C° 0 mm 1 mps 767 mmHg 44%
    20:00 +14°C° 0 mm 1 mps 767 mmHg 48%
    21:00 +14°C° 0 mm 1 mps 767 mmHg 51%
    22:00 +13°C° 0 mm 1 mps 767 mmHg 53%
    23:00 +13°C° 0 mm 2 mps 767 mmHg 55%
    Show more